Weather History for Tomahawk, WI

Change the Weather History Date:

Monday, September 9, 2013

  Actual Average (KRHI) Record (KRHI)
Temperature  
Mean Temperature 69 °F 58 °F  
Max Temperature 80 °F 70 °F 91 °F (1912)
Min Temperature 58 °F 47 °F 31 °F (1913)
Degree Days  
Heating Degree Days 0 8  
Month to date heating degree days 57  
Since 1 July heating degree days 184  
Cooling Degree Days 4 1  
Month to date cooling degree days 9  
Year to date cooling degree days 250  
Growing Degree Days 19 (Base 50)    
Moisture  
Dew Point 63 °F    
Average Humidity 85    
Maximum Humidity 96    
Minimum Humidity 72    
Precipitation  
Precipitation 0.00 in 0.14 in 1.97 in (1968)
Month to date precipitation 1.21  
Year to date precipitation 22.09  
Snow  
Snow 0.00 in - 0.00 in ()
Month to date snowfall  
Since 1 July snowfall  
Since 1 September snowfall  
Snow Depth -    
Sea Level Pressure  
Sea Level Pressure 29.83 in    
Wind  
Wind Speed 2 mph (SSE)    
Max Wind Speed 7 mph    
Max Gust Speed -    
Visibility 7 miles    
Events Fog , Rain    
T = Trace of Precipitation, MM = Missing Value Source: NWS Daily Summary

Daily Weather History Graph

Daily Weather History Graph

Search for Another Location

Airport:

Trip Planner

Search our weather history database for the weather conditions in past years. The results will help you decide how hot, cold, wet, or windy it might be!

Date:

Astronomy

Sep. 09, 2013 Rise Set
Actual Time 6:30 AM CDT 7:21 PM CDT
Civil Twilight 6:00 AM CDT 7:51 PM CDT
Nautical Twilight 5:24 AM CDT 8:26 PM CDT
Astronomical Twilight 4:47 AM CDT 9:04 PM CDT
Moon 11:07 AM CDT (9/9) 9:21 PM CDT (9/9)
Length of Visible Light 13h 50m
Length of Day
12h 50m
Waxing Crescent, 19% of the Moon is Illuminated
Sep 9
Waxing Crescent
Sep 12
First Quarter
Sep 19
Full
Sep 26
Last Quarter
Oct 4
New

Hourly Weather History & Observations

Time (CDT) Temp. Heat Index Dew Point Humidity Pressure Visibility Wind Dir Wind Speed Gust Speed Precip Events Conditions
12:15 AM 59.0 °F - 52.2 °F 78% 29.99 in 10.0 mi SE 4.6 mph - N/A   Overcast
12:35 AM 59.0 °F - 52.7 °F 80% 29.98 in 10.0 mi SE 3.5 mph - N/A   Overcast
12:55 AM 59.2 °F - 53.1 °F 80% 29.98 in 10.0 mi Calm Calm - N/A   Overcast
1:15 AM 59.0 °F - 53.4 °F 82% 29.97 in 10.0 mi Calm Calm - N/A   Overcast
1:35 AM 59.0 °F - 53.6 °F 82% 29.96 in 10.0 mi SE 3.5 mph - N/A   Overcast
1:55 AM 59.0 °F - 53.8 °F 83% 29.96 in 10.0 mi Calm Calm - N/A   Overcast
2:15 AM 59.0 °F - 54.1 °F 84% 29.96 in 10.0 mi Calm Calm - N/A   Overcast
2:35 AM 59.0 °F - 54.5 °F 85% 29.96 in 10.0 mi Calm Calm - N/A   Overcast
2:55 AM 59.0 °F - 54.7 °F 86% 29.95 in 10.0 mi Calm Calm - N/A   Overcast
3:15 AM 58.8 °F - 54.9 °F 87% 29.95 in 10.0 mi Calm Calm - N/A   Overcast
3:35 AM 59.0 °F - 55.2 °F 87% 29.95 in 10.0 mi Calm Calm - N/A   Overcast
3:55 AM 59.0 °F - 55.0 °F 87% 29.95 in 10.0 mi SE 3.5 mph - N/A   Overcast
4:15 AM 59.0 °F - 55.4 °F 88% 29.94 in 10.0 mi Calm Calm - N/A   Overcast
4:35 AM 59.0 °F - 55.4 °F 88% 29.93 in 10.0 mi SE 3.5 mph - N/A   Overcast
4:55 AM 59.2 °F - 55.4 °F 87% 29.92 in 10.0 mi Calm Calm - N/A   Overcast
5:15 AM 59.4 °F - 55.6 °F 87% 29.92 in 10.0 mi Calm Calm - N/A   Overcast
5:35 AM 59.5 °F - 55.8 °F 87% 29.92 in 10.0 mi Calm Calm - N/A   Overcast
5:55 AM 59.5 °F - 55.9 °F 88% 29.92 in 10.0 mi Calm Calm - N/A   Overcast
6:15 AM 59.9 °F - 56.3 °F 88% 29.92 in 10.0 mi Calm Calm - N/A   Overcast
6:35 AM 59.9 °F - 56.3 °F 88% 29.91 in 10.0 mi Calm Calm - N/A   Overcast
6:55 AM 59.9 °F - 56.3 °F 88% 29.91 in 10.0 mi Calm Calm - N/A   Overcast
7:15 AM 59.9 °F - 56.5 °F 88% 29.90 in 10.0 mi Calm Calm - N/A   Overcast
7:35 AM 60.3 °F - 56.7 °F 88% 29.90 in 10.0 mi Calm Calm - N/A   Overcast
7:55 AM 60.8 °F - 56.8 °F 87% 29.91 in 10.0 mi Calm Calm - N/A   Overcast
8:15 AM 61.3 °F - 57.4 °F 87% 29.90 in 10.0 mi Calm Calm - N/A   Overcast
8:35 AM 61.7 °F - 57.7 °F 87% 29.91 in 10.0 mi Calm Calm - N/A   Overcast
8:55 AM 61.7 °F - 58.1 °F 88% 29.95 in 5.0 mi Calm Calm - N/A   Overcast
9:15 AM 61.7 °F - 58.3 °F 89% 29.94 in 5.0 mi Calm Calm - N/A   Overcast
9:35 AM 61.7 °F - 59.5 °F 93% 29.93 in 3.0 mi Calm Calm - N/A   Overcast
9:55 AM 61.9 °F - 59.9 °F 93% 29.91 in 3.0 mi ESE 4.6 mph - N/A   Overcast
10:15 AM 62.2 °F - 60.1 °F 93% 29.90 in 3.0 mi SE 3.5 mph - N/A   Overcast
10:35 AM 63.3 °F - 60.8 °F 91% 29.91 in 3.0 mi Calm Calm - N/A   Overcast
10:55 AM 63.5 °F - 60.8 °F 91% 29.90 in 3.0 mi Calm Calm - N/A   Overcast
11:15 AM 63.3 °F - 60.8 °F 91% 29.85 in 3.0 mi SE 4.6 mph - N/A Rain Light Rain
11:35 AM 64.8 °F - 61.9 °F 90% 29.85 in 4.0 mi SE 5.8 mph - N/A   Overcast
11:55 AM 66.4 °F - 63.1 °F 89% 29.85 in 4.0 mi SSE 4.6 mph - N/A   Overcast
12:15 PM 68.7 °F - 63.9 °F 84% 29.84 in 5.0 mi SSE 3.5 mph - N/A   Haze
12:35 PM 70.5 °F - 64.4 °F 81% 29.83 in 5.0 mi SSE 3.5 mph - N/A   Haze
12:55 PM 71.6 °F - 65.5 °F 81% 29.82 in 7.0 mi SE 4.6 mph - N/A   Scattered Clouds
1:15 PM 72.5 °F - 65.8 °F 80% 29.81 in 7.0 mi Calm Calm - N/A   Clear
1:35 PM 72.9 °F - 66.2 °F 80% 29.80 in 7.0 mi SE 4.6 mph - N/A   Clear
1:55 PM 75.9 °F - 67.6 °F 75% 29.79 in 7.0 mi SE 6.9 mph - N/A   Clear
2:15 PM 76.8 °F - 67.6 °F 73% 29.79 in 10.0 mi SSE 5.8 mph - N/A   Clear
2:35 PM 78.1 °F - 68.4 °F 72% 29.77 in 10.0 mi SSE 4.6 mph - N/A   Clear
2:55 PM 77.5 °F - 68.2 °F 73% 29.75 in 10.0 mi SSE 5.8 mph - N/A   Clear
3:15 PM 77.5 °F - 68.7 °F 74% 29.74 in 10.0 mi South 4.6 mph - N/A   Scattered Clouds
3:35 PM 77.5 °F - 69.1 °F 75% 29.74 in 10.0 mi SSE 4.6 mph - N/A   Scattered Clouds
3:55 PM 78.1 °F - 69.8 °F 76% 29.73 in 10.0 mi Calm Calm - N/A   Scattered Clouds
4:15 PM 78.3 °F - 69.4 °F 74% 29.73 in 10.0 mi South 5.8 mph - N/A   Scattered Clouds
4:35 PM 78.6 °F - 69.8 °F 74% 29.72 in 10.0 mi SSE 6.9 mph - N/A   Clear
4:55 PM 79.7 °F - 70.3 °F 73% 29.72 in 10.0 mi SSE 5.8 mph - N/A   Clear
5:15 PM 80.2 °F 83.7 °F 70.7 °F 73% 29.72 in 10.0 mi SSE 4.6 mph - N/A   Clear
5:35 PM 79.5 °F - 70.7 °F 74% 29.71 in 10.0 mi Calm Calm - N/A   Clear
5:55 PM 78.3 °F - 70.7 °F 77% 29.70 in 10.0 mi SSE 3.5 mph - N/A   Clear
6:15 PM 78.3 °F - 71.1 °F 78% 29.71 in 7.0 mi Calm Calm - N/A   Clear
6:35 PM 77.9 °F - 71.2 °F 80% 29.71 in 7.0 mi Calm Calm - N/A   Clear
6:55 PM 76.3 °F - 71.1 °F 84% 29.71 in 7.0 mi Calm Calm - N/A   Clear
7:15 PM 75.6 °F - 70.9 °F 85% 29.71 in 7.0 mi Calm Calm - N/A   Clear
7:35 PM 75.2 °F - 70.9 °F 86% 29.71 in 7.0 mi Calm Calm - N/A   Clear
7:55 PM 75.2 °F - 70.7 °F 86% 29.71 in 7.0 mi Calm Calm - N/A   Clear
8:15 PM 73.4 °F - 69.8 °F 88% 29.72 in 7.0 mi Calm Calm - N/A   Clear
8:35 PM 72.5 °F - 69.4 °F 90% 29.72 in 5.0 mi Calm Calm - N/A   Clear
8:55 PM 71.8 °F - 69.3 °F 92% 29.73 in 5.0 mi Calm Calm - N/A   Clear
9:15 PM 70.3 °F - 68.4 °F 93% 29.73 in 1.0 mi Calm Calm - N/A   Mist
9:35 PM 69.3 °F - 67.5 °F 94% 29.73 in 0.5 mi Calm Calm - N/A Fog Fog
9:55 PM 68.7 °F - 67.1 °F 95% 29.73 in 0.5 mi Calm Calm - N/A Fog Fog
10:15 PM 68.9 °F - 67.5 °F 95% 29.73 in 2.5 mi Calm Calm - N/A   Clear
10:35 PM 68.9 °F - 67.6 °F 96% 29.73 in 3.0 mi Calm Calm - N/A   Clear
10:55 PM 69.8 °F - 68.5 °F 96% 29.73 in 5.0 mi Calm Calm - N/A   Clear
11:15 PM 69.6 °F - 68.0 °F 95% 29.73 in 5.0 mi Calm Calm - N/A   Clear
11:35 PM 68.9 °F - 67.3 °F 95% 29.74 in 4.0 mi Calm Calm - N/A   Clear
11:55 PM 67.5 °F - 65.8 °F 95% 29.74 in 1.2 mi Calm Calm - N/A   Mist